Total_Precipitation_Accumulation
0.40 0.47 0.36 0.27 0.24 0.21 0.19 0.19 0.16 0.12 0.11 0.12 0.10 0.06 0.03 0.03 0.04 0.04 0.02 0.03 0.02 0.01 0.01 0.01 0.02 0.02 0.03 0.06 0.09 0.10 0.11 0.17 0.19 0.20 0.25 0.29 0.26 0.27 0.30 0.29 0.26 0.27 0.28 0.29
0.40 0.33 0.17 0.13 0.17 0.22 0.23 0.21 0.17 0.13 0.10 0.13 0.11 0.06 0.03 0.03 0.04 0.03 0.03 0.02 0.02 0.01 0.01 0.02 0.03 0.04 0.03 0.04 0.07 0.10 0.10 0.13 0.19 0.19 0.19 0.24 0.24 0.25 0.28 0.29 0.28 0.29 0.28 0.29
0.33 0.18 0.12 0.16 0.21 0.26 0.28 0.23 0.17 0.17 0.15 0.14 0.13 0.09 0.04 0.03 0.03 0.03 0.02 0.02 0.02 0.01 0.02 0.03 0.04 0.05 0.05 0.05 0.06 0.09 0.10 0.11 0.16 0.22 0.24 0.28 0.32 0.30 0.32 0.31 0.29 0.29 0.29 0.28
0.28 0.15 0.16 0.20 0.20 0.21 0.23 0.16 0.16 0.20 0.29 0.29 0.20 0.18 0.05 0.03 0.04 0.03 0.02 0.02 0.01 0.01 0.01 0.02 0.03 0.04 0.06 0.07 0.08 0.10 0.13 0.12 0.13 0.19 0.27 0.30 0.33 0.29 0.25 0.24 0.26 0.27 0.28 0.28
0.32 0.15 0.17 0.19 0.13 0.14 0.16 0.14 0.19 0.23 0.34 0.34 0.22 0.21 0.08 0.03 0.04 0.03 0.01 0.01 0.01 0.01 0.01 0.02 0.01 0.02 0.04 0.06 0.08 0.09 0.14 0.16 0.14 0.15 0.19 0.27 0.32 0.32 0.31 0.30 0.29 0.30 0.31 0.29
0.22 0.15 0.18 0.16 0.11 0.13 0.20 0.26 0.33 0.37 0.49 0.51 0.18 0.15 0.08 0.04 0.04 0.02 0.01 0.01 0.01 0.02 0.02 0.03 0.03 0.03 0.03 0.04 0.06 0.09 0.12 0.16 0.16 0.18 0.19 0.24 0.30 0.33 0.37 0.39 0.36 0.33 0.32 0.31
0.29 0.18 0.16 0.16 0.21 0.22 0.34 0.56 0.78 0.79 0.72 0.40 0.08 0.09 0.07 0.04 0.03 0.02 0.01 0.01 0.01 0.02 0.03 0.03 0.03 0.05 0.05 0.04 0.05 0.09 0.12 0.15 0.16 0.18 0.21 0.22 0.26 0.29 0.33 0.38 0.37 0.35 0.33 0.33
0.36 0.23 0.13 0.13 0.19 0.26 0.29 0.44 0.64 0.62 0.37 0.13 0.05 0.07 0.05 0.04 0.03 0.01 0.01 0.01 0.02 0.02 0.03 0.03 0.03 0.03 0.03 0.04 0.05 0.08 0.10 0.12 0.16 0.19 0.21 0.23 0.25 0.27 0.26 0.31 0.36 0.38 0.34 0.34
0.40 0.24 0.09 0.07 0.09 0.19 0.31 0.30 0.29 0.46 0.35 0.22 0.12 0.07 0.05 0.03 0.02 0.01 0.01 0.02 0.03 0.03 0.03 0.03 0.03 0.02 0.03 0.03 0.04 0.06 0.08 0.09 0.12 0.16 0.22 0.24 0.25 0.25 0.24 0.25 0.31 0.35 0.34 0.33
0.46 0.36 0.15 0.10 0.15 0.19 0.24 0.31 0.42 0.66 0.62 0.33 0.12 0.07 0.07 0.04 0.03 0.02 0.03 0.03 0.04 0.04 0.04 0.04 0.03 0.03 0.03 0.04 0.04 0.06 0.09 0.09 0.10 0.12 0.17 0.22 0.24 0.25 0.26 0.25 0.27 0.31 0.35 0.36
0.46 0.51 0.29 0.21 0.23 0.20 0.21 0.33 0.53 0.65 0.53 0.37 0.20 0.10 0.09 0.07 0.04 0.04 0.04 0.04 0.06 0.07 0.07 0.06 0.04 0.03 0.04 0.05 0.06 0.07 0.11 0.11 0.13 0.13 0.15 0.19 0.25 0.28 0.30 0.33 0.32 0.33 0.36 0.41
0.46 0.64 0.45 0.22 0.16 0.15 0.22 0.26 0.38 0.59 0.50 0.31 0.25 0.12 0.06 0.06 0.05 0.04 0.04 0.04 0.05 0.08 0.09 0.08 0.06 0.05 0.06 0.07 0.08 0.10 0.13 0.13 0.15 0.15 0.17 0.19 0.24 0.31 0.35 0.39 0.40 0.42 0.43 0.45
0.70 0.94 0.77 0.46 0.32 0.28 0.30 0.29 0.31 0.44 0.53 0.41 0.34 0.13 0.03 0.04 0.05 0.04 0.04 0.04 0.05 0.07 0.08 0.07 0.07 0.08 0.08 0.09 0.10 0.14 0.17 0.16 0.16 0.16 0.18 0.21 0.26 0.33 0.40 0.44 0.47 0.48 0.50 0.53
0.95 1.04 0.77 0.53 0.34 0.32 0.32 0.28 0.29 0.46 0.64 0.42 0.20 0.08 0.03 0.03 0.05 0.05 0.04 0.05 0.04 0.04 0.06 0.08 0.08 0.08 0.10 0.11 0.11 0.15 0.19 0.18 0.21 0.24 0.25 0.29 0.36 0.40 0.45 0.50 0.51 0.51 0.53 0.56
1.00 1.00 0.54 0.29 0.17 0.17 0.21 0.19 0.19 0.28 0.31 0.28 0.13 0.07 0.06 0.05 0.06 0.07 0.06 0.05 0.04 0.05 0.07 0.09 0.10 0.09 0.11 0.12 0.13 0.17 0.22 0.26 0.32 0.38 0.40 0.39 0.39 0.43 0.43 0.46 0.49 0.52 0.55 0.58
0.92 0.92 0.54 0.35 0.20 0.19 0.19 0.14 0.12 0.14 0.13 0.12 0.08 0.08 0.06 0.04 0.04 0.04 0.04 0.05 0.05 0.06 0.07 0.08 0.10 0.11 0.11 0.15 0.20 0.26 0.33 0.37 0.41 0.46 0.48 0.46 0.40 0.40 0.45 0.45 0.47 0.50 0.54 0.54
0.85 0.89 0.83 0.51 0.25 0.38 0.37 0.14 0.10 0.11 0.09 0.09 0.09 0.08 0.05 0.04 0.03 0.03 0.04 0.05 0.06 0.06 0.07 0.09 0.11 0.14 0.16 0.21 0.28 0.35 0.39 0.41 0.43 0.46 0.50 0.52 0.45 0.40 0.43 0.45 0.44 0.44 0.44 0.46
0.62 0.72 1.01 0.77 0.52 0.66 0.27 0.07 0.06 0.08 0.08 0.08 0.07 0.07 0.06 0.05 0.04 0.03 0.04 0.07 0.09 0.10 0.12 0.14 0.16 0.18 0.22 0.26 0.31 0.36 0.39 0.42 0.42 0.42 0.42 0.43 0.39 0.34 0.36 0.41 0.40 0.36 0.37 0.41
0.33 0.60 1.06 0.99 0.74 0.38 0.09 0.04 0.05 0.09 0.11 0.09 0.08 0.07 0.06 0.06 0.06 0.07 0.08 0.08 0.09 0.10 0.10 0.11 0.12 0.15 0.20 0.25 0.28 0.29 0.30 0.32 0.31 0.31 0.29 0.30 0.28 0.27 0.32 0.37 0.34 0.31 0.31 0.33
0.30 0.55 1.11 1.11 0.86 0.38 0.09 0.04 0.04 0.10 0.15 0.10 0.09 0.08 0.08 0.12 0.25 0.15 0.12 0.09 0.07 0.06 0.06 0.07 0.08 0.09 0.12 0.16 0.18 0.19 0.19 0.20 0.22 0.21 0.21 0.27 0.25 0.23 0.28 0.34 0.32 0.31 0.30 0.32
0.48 0.81 1.04 0.91 0.78 0.30 0.07 0.04 0.06 0.19 0.22 0.15 0.13 0.12 0.16 0.24 0.30 0.18 0.12 0.10 0.08 0.06 0.05 0.05 0.06 0.09 0.12 0.15 0.16 0.15 0.13 0.13 0.14 0.16 0.18 0.25 0.27 0.25 0.25 0.28 0.31 0.31 0.32 0.33
0.41 0.62 0.66 0.66 0.83 0.38 0.08 0.08 0.15 0.21 0.16 0.14 0.16 0.17 0.23 0.19 0.12 0.10 0.10 0.10 0.08 0.06 0.06 0.06 0.07 0.11 0.16 0.18 0.14 0.10 0.09 0.09 0.10 0.14 0.17 0.23 0.30 0.28 0.26 0.28 0.28 0.29 0.33 0.37
0.32 0.41 0.46 0.46 0.38 0.16 0.09 0.11 0.12 0.14 0.16 0.19 0.26 0.26 0.24 0.21 0.14 0.13 0.11 0.09 0.07 0.07 0.08 0.09 0.10 0.15 0.18 0.14 0.10 0.09 0.08 0.08 0.10 0.13 0.18 0.23 0.28 0.28 0.27 0.28 0.29 0.30 0.33 0.39
0.20 0.22 0.31 0.31 0.20 0.12 0.09 0.08 0.08 0.10 0.15 0.19 0.22 0.24 0.26 0.28 0.21 0.17 0.14 0.11 0.09 0.09 0.10 0.11 0.11 0.15 0.17 0.12 0.07 0.07 0.07 0.07 0.09 0.12 0.18 0.23 0.27 0.29 0.28 0.27 0.28 0.30 0.36 0.51
0.16 0.17 0.21 0.20 0.15 0.13 0.12 0.10 0.10 0.12 0.11 0.10 0.11 0.15 0.24 0.29 0.23 0.15 0.12 0.12 0.13 0.13 0.13 0.14 0.14 0.15 0.14 0.10 0.07 0.07 0.09 0.10 0.12 0.13 0.17 0.23 0.27 0.29 0.30 0.28 0.29 0.33 0.38 0.61
0.11 0.11 0.15 0.15 0.12 0.13 0.12 0.10 0.12 0.15 0.13 0.13 0.15 0.16 0.17 0.20 0.18 0.15 0.15 0.16 0.17 0.19 0.20 0.19 0.16 0.12 0.11 0.10 0.08 0.09 0.11 0.14 0.16 0.17 0.20 0.24 0.29 0.31 0.31 0.31 0.31 0.33 0.37 0.47